Location: Hilton Head Island
(32.2163°N, 80.7526°W)
Time: 17:35:51
(UTC-04:00)

Altair - Pass Details

Date: 22 February 2026
Orbit: 1502 x 1682 km, 47.2° (Epoch: 10 March)

Event Time Altitude Azimuth Distance (km) Brightness Sun altitude
Exits shadow 02:25:27 20° 64° (ENE) 2,973 9.2 -56.6°
Drops below altitude 10° 02:27:45 10° 59° (ENE) 3,677 9.9 -56.2°
Sets 02:30:52 0° 55° (NE) 4,677 10.6 -55.6°
